USA 170

Last updated on Sun Jun 21 2026 00:03:03 GMT+0000 (Coordinated Universal Time)

1 27875U 03040A 26171.00919861 .00000116 00000+0 00000+0 0 9993 2 27875 10.5070 47.9240 0001755 42.2712 205.5706 1.00269476 33024
UTC large
Height (km)
Speed (km/s)
/
Latitude / Longitude
Inclination (degrees)
Orbital Period (minutes)
Azimuth
Elevation
Range (km)
Doppler Factor

Next 0 passes for location: London (51.5072 / 0.1276)

No passes found over London.
USA 170